Hourly Data Report for March 07, 2021

OTTAWA INTL A
ONTARIO
Current Station Operator: NAVCAN

45°19'00.000" N
75°40'00.000" W
114.90 m
6106001
71628
YOW

Download Data

Hourly Data (March 2021)
Hourly Data Report for March 7, 2021
TIME
LST
Temp Definition
°C
Dew Point Definition
°C
Rel Hum Definition
%
Precip. Amount Definition
mm

Wind Dir Definition
10's deg

Wind Spd Definition
km/h
Visibility Definition
km
Stn Press Definition
kPa
Hmdx Definition


Wind Chill Definition


Weather Definition


00:00 -9.7 -15.9 61   29 16 24.1 100.89   -17 LegendNANA
01:00 -10.0 -15.8 63   29 14 24.1 100.95   -16 Mostly Cloudy
02:00 -10.5 -16.0 64   28 14 24.1 100.99   -17 LegendNANA
03:00 -11.7 -16.6 67   29 13 24.1 101.01   -18 LegendNANA
04:00 -13.7 -18.1 70   31 19 24.1 101.08   -22 Mainly Clear
05:00 -13.8 -18.1 71   29 14 24.1 101.15   -21 LegendNANA
06:00 -16.3 -19.7 75   30 13 24.1 101.23   -24 LegendNANA
07:00 -16.4 -19.9 75   31 14 24.1 101.33   -24 Clear
08:00 -13.7 -18.5 68   29 13 24.1 101.40   -21 LegendNANA
09:00 -11.7 -18.1 59   33 17 24.1 101.45   -19 LegendNANA
10:00 -10.8 -18.0 56   29 17 24.1 101.51   -18 Mainly Clear
11:00 -9.4 -16.9 55   30 19 24.1 101.52   -17 LegendNANA
12:00 -8.3 -16.2 53   27 15 24.1 101.51   -15 LegendNANA
13:00 -7.4 -16.4 49   25 22 24.1 101.46   -15 Clear
14:00 -7.2 -15.2 53   24 25 24.1 101.47   -15 LegendNANA
15:00 -6.6 -16.0 48   26 24 24.1 101.51   -14 LegendNANA
16:00 -6.6 -16.6 45   26 20 24.1 101.52   -14 Clear
17:00 -6.5 -16.9 44   29 17 24.1 101.51   -13 LegendNANA
18:00 -9.4 -18.8 47   26 10 24.1 101.58   -15 LegendNANA
19:00 -8.6 -19.9 40   24 9 24.1 101.60   -13 Clear
20:00 -9.7 -19.9 43   22 10 24.1 101.58   -15 LegendNANA
21:00 -10.5 -18.9 51   21 8 24.1 101.61   -15 LegendNANA
22:00 -11.3 -18.7 55   21 7 24.1 101.60   -16 Clear
23:00 -12.2 -19.0 57   22 8 24.1 101.60   -17 LegendNANA

Notes on Data Quality.

Legend

  • E = Estimated
  • M = Missing
  • NA = Not Available*
  • [empty] = Indicates an unobserved value
Date modified: